TimeEDT,TemperatureF,Dew PointF,Humidity,Sea Level PressureIn,VisibilityMPH,Wind Direction,Wind SpeedMPH,Gust SpeedMPH,PrecipitationIn,Events,Conditions,WindDirDegrees,DateUTC
12:15 AM,39.2,39.2,100,29.45,10.0,SW,8.1,-,N/A,,Drizzle,230,2013-03-25 04:15:00
12:35 AM,37.4,37.4,100,29.46,4.0,SW,21.9,28.8,0.04,Rain,Rain,230,2013-03-25 04:35:00
12:55 AM,33.8,33.8,100,29.47,1.0,SW,11.5,23.0,0.06,Snow,Light Snow,230,2013-03-25 04:55:00
1:15 AM,33.8,33.8,100,29.46,10.0,SW,12.7,17.3,N/A,,Overcast,230,2013-03-25 05:15:00
1:35 AM,35.6,35.6,100,29.46,10.0,SW,13.8,21.9,N/A,,Overcast,230,2013-03-25 05:35:00
1:55 AM,35.6,35.6,100,29.46,10.0,SW,16.1,23.0,N/A,,Overcast,230,2013-03-25 05:55:00
2:15 AM,35.6,33.8,93,29.47,10.0,SW,18.4,25.3,N/A,,Overcast,220,2013-03-25 06:15:00
2:35 AM,33.8,33.8,100,29.47,3.0,SW,16.1,21.9,N/A,Snow,Light Snow,230,2013-03-25 06:35:00
2:55 AM,33.8,33.8,100,29.48,10.0,SW,19.6,26.5,N/A,,Overcast,220,2013-03-25 06:55:00
3:15 AM,33.8,33.8,100,29.48,10.0,SW,17.3,26.5,N/A,,Overcast,230,2013-03-25 07:15:00
3:35 AM,33.8,32.0,93,29.48,10.0,WSW,20.7,27.6,N/A,,Overcast,240,2013-03-25 07:35:00
3:55 AM,33.8,32.0,93,29.48,10.0,SW,17.3,23.0,N/A,,Overcast,230,2013-03-25 07:55:00
4:15 AM,32.0,32.0,100,29.48,10.0,SW,15.0,21.9,N/A,,Overcast,220,2013-03-25 08:15:00
4:35 AM,32.0,32.0,100,29.49,10.0,WSW,15.0,24.2,N/A,Snow,Light Snow,240,2013-03-25 08:35:00
4:55 AM,32.0,32.0,100,29.49,3.0,WSW,16.1,25.3,N/A,Snow,Light Snow,250,2013-03-25 08:55:00
5:15 AM,32.0,30.2,93,29.50,10.0,SW,12.7,17.3,N/A,Snow,Light Snow,230,2013-03-25 09:15:00
5:35 AM,32.0,32.0,100,29.50,1.5,SW,13.8,17.3,N/A,Snow,Light Snow,230,2013-03-25 09:35:00
5:55 AM,30.2,30.2,100,29.50,10.0,SW,15.0,21.9,N/A,Snow,Light Snow,230,2013-03-25 09:55:00
6:15 AM,30.2,30.2,100,29.50,2.5,SW,17.3,21.9,N/A,Snow,Light Snow,230,2013-03-25 10:15:00
6:35 AM,30.2,30.2,100,29.51,5.0,WSW,13.8,-,N/A,Snow,Light Snow,250,2013-03-25 10:35:00
6:55 AM,30.2,30.2,100,29.51,7.0,WSW,15.0,20.7,N/A,Snow,Light Snow,240,2013-03-25 10:55:00
7:15 AM,30.2,30.2,100,29.51,3.0,WSW,13.8,23.0,N/A,Snow,Light Snow,240,2013-03-25 11:15:00
7:35 AM,30.2,30.2,100,29.52,2.5,SW,11.5,19.6,N/A,Snow,Light Snow,230,2013-03-25 11:35:00
7:55 AM,30.2,30.2,100,29.52,3.0,WSW,13.8,18.4,N/A,Snow,Light Snow,240,2013-03-25 11:55:00
8:15 AM,30.2,30.2,100,29.52,2.0,WSW,10.4,23.0,N/A,Snow,Light Snow,240,2013-03-25 12:15:00
8:35 AM,28.4,28.4,100,29.53,0.2,West,11.5,-,N/A,Snow,Snow,260,2013-03-25 12:35:00
8:55 AM,28.4,28.4,100,29.53,0.2,West,6.9,11.5,N/A,Snow,Snow,260,2013-03-25 12:55:00
9:15 AM,28.4,28.4,100,29.54,0.2,West,16.1,21.9,N/A,Snow,Heavy Snow,270,2013-03-25 13:15:00
9:35 AM,28.4,28.4,100,29.55,0.5,West,11.5,16.1,N/A,Snow,Light Snow,260,2013-03-25 13:35:00
9:55 AM,28.4,28.4,100,29.55,2.0,West,10.4,-,N/A,Snow,Light Snow,260,2013-03-25 13:55:00
10:15 AM,28.4,28.4,100,29.56,1.5,West,6.9,-,N/A,Snow,Light Snow,260,2013-03-25 14:15:00
10:35 AM,30.2,30.2,100,29.57,0.2,West,10.4,-,N/A,Snow,Light Snow,260,2013-03-25 14:35:00
10:55 AM,30.2,30.2,100,29.57,1.0,WSW,10.4,16.1,N/A,Snow,Light Snow,250,2013-03-25 14:55:00
11:15 AM,30.2,30.2,100,29.57,0.5,SW,15.0,19.6,N/A,Snow,Light Snow,230,2013-03-25 15:15:00
11:35 AM,30.2,30.2,100,29.58,1.5,WSW,10.4,20.7,N/A,Snow,Light Snow,250,2013-03-25 15:35:00
11:55 AM,32.0,28.4,87,29.59,10.0,WSW,17.3,23.0,N/A,Snow,Light Snow,250,2013-03-25 15:55:00
12:15 PM,32.0,26.6,80,29.59,3.0,WSW,18.4,25.3,N/A,Snow,Light Snow,240,2013-03-25 16:15:00
12:35 PM,32.0,26.6,80,29.59,3.0,West,17.3,26.5,N/A,Snow,Light Snow,260,2013-03-25 16:35:00
12:55 PM,32.0,26.6,80,29.60,2.5,West,16.1,25.3,N/A,Snow,Light Snow,260,2013-03-25 16:55:00
1:15 PM,32.0,26.6,80,29.61,2.0,WSW,15.0,32.2,N/A,Snow,Light Snow,250,2013-03-25 17:15:00
1:35 PM,32.0,26.6,80,29.61,7.0,West,18.4,26.5,N/A,,Overcast,270,2013-03-25 17:35:00
1:55 PM,32.0,28.4,87,29.62,0.8,WSW,19.6,25.3,N/A,Snow,Light Snow,250,2013-03-25 17:55:00
2:15 PM,32.0,26.6,80,29.62,5.0,West,12.7,20.7,N/A,Snow,Light Snow,260,2013-03-25 18:15:00
2:35 PM,32.0,26.6,80,29.62,10.0,West,12.7,26.5,N/A,,Overcast,260,2013-03-25 18:35:00
2:55 PM,32.0,26.6,80,29.62,10.0,West,16.1,21.9,N/A,,Overcast,260,2013-03-25 18:55:00
3:15 PM,32.0,26.6,80,29.63,7.0,WNW,19.6,26.5,N/A,,Overcast,290,2013-03-25 19:15:00
3:35 PM,32.0,26.6,80,29.64,1.8,WNW,13.8,23.0,N/A,Snow,Light Snow,300,2013-03-25 19:35:00
3:55 PM,30.2,26.6,86,29.65,0.5,West,20.7,31.1,N/A,Snow,Light Snow,270,2013-03-25 19:55:00
4:15 PM,30.2,28.4,93,29.66,0.2,West,16.1,21.9,N/A,Snow,Light Snow,260,2013-03-25 20:15:00
4:35 PM,30.2,28.4,93,29.67,1.2,West,16.1,-,N/A,Snow,Light Snow,280,2013-03-25 20:35:00
4:55 PM,32.0,26.6,80,29.67,10.0,West,13.8,20.7,N/A,,Overcast,260,2013-03-25 20:55:00
5:15 PM,32.0,26.6,80,29.68,3.0,WSW,13.8,20.7,N/A,Snow,Light Snow,250,2013-03-25 21:15:00
5:35 PM,32.0,28.4,87,29.69,0.5,West,13.8,25.3,N/A,Snow,Light Snow,270,2013-03-25 21:35:00
5:55 PM,30.2,26.6,86,29.70,1.5,West,15.0,24.2,N/A,Snow,Light Snow,260,2013-03-25 21:55:00
6:15 PM,32.0,26.6,80,29.71,3.0,West,13.8,21.9,N/A,Snow,Light Snow,270,2013-03-25 22:15:00
6:35 PM,30.2,28.4,93,29.73,1.0,West,15.0,19.6,N/A,Snow,Light Snow,270,2013-03-25 22:35:00
6:55 PM,30.2,26.6,86,29.74,2.0,West,12.7,20.7,N/A,Snow,Light Snow,270,2013-03-25 22:55:00
7:15 PM,30.2,26.6,86,29.75,4.0,West,13.8,21.9,N/A,Snow,Light Snow,280,2013-03-25 23:15:00
7:35 PM,30.2,26.6,86,29.76,3.0,WNW,13.8,19.6,N/A,Snow,Light Snow,290,2013-03-25 23:35:00
7:55 PM,30.2,28.4,93,29.77,1.5,West,12.7,19.6,N/A,Snow,Light Snow,270,2013-03-25 23:55:00
8:15 PM,30.2,28.4,93,29.78,1.0,West,11.5,-,N/A,Snow,Light Snow,270,2013-03-26 00:15:00
8:35 PM,30.2,28.4,93,29.79,1.5,WNW,12.7,24.2,N/A,Snow,Light Snow,290,2013-03-26 00:35:00
8:55 PM,30.2,26.6,86,29.80,3.0,WNW,11.5,19.6,N/A,Snow,Light Snow,290,2013-03-26 00:55:00
9:15 PM,30.2,28.4,93,29.81,2.0,West,9.2,18.4,N/A,Snow,Light Snow,260,2013-03-26 01:15:00
9:35 PM,30.2,26.6,86,29.82,3.0,West,10.4,23.0,N/A,Snow,Light Snow,280,2013-03-26 01:35:00
9:55 PM,30.2,26.6,86,29.83,3.0,West,12.7,18.4,N/A,Snow,Light Snow,280,2013-03-26 01:55:00
10:15 PM,30.2,26.6,86,29.83,3.0,West,13.8,20.7,N/A,Snow,Light Snow,280,2013-03-26 02:15:00
10:35 PM,30.2,28.4,93,29.84,2.5,West,11.5,17.3,N/A,Snow,Light Snow,270,2013-03-26 02:35:00
10:55 PM,30.2,26.6,86,29.84,3.0,West,15.0,23.0,N/A,Snow,Light Snow,280,2013-03-26 02:55:00
11:15 PM,30.2,26.6,86,29.84,2.5,West,12.7,-,N/A,Snow,Light Snow,280,2013-03-26 03:15:00
11:35 PM,30.2,26.6,86,29.85,3.0,West,12.7,18.4,N/A,Snow,Light Snow,270,2013-03-26 03:35:00
11:55 PM,30.2,26.6,86,29.85,3.0,West,12.7,20.7,N/A,Snow,Light Snow,280,2013-03-26 03:55:00